Regional Weather Roundup
Issued by NWS Northern Indiana

Home | Current Version | Previous Version | Graphics & Text | Print | Product List | Glossary On
Versions: 1 2 3 4 5 6 7 8 9 10 11 12 13 14 15 16 17 18 19 20 21 22 23 24 25 26 27 28 29 30 31 32 33 34 35 36 37 38 39 40 41 42 43 44 45 46 47 48 49 50
000
ASUS43 KIWX 252000
RWRIWX

KIWX WEATHER ROUNDUP
NATIONAL WEATHER SERVICE NORTHERN INDIANA
400 PM EDT MON MAY 25 2015

NOTE: "FAIR" INDICATES FEW OR NO CLOUDS BELOW 12,000 FEET WITH NO
SIGNIFICANT WEATHER AND/OR OBSTRUCTIONS TO VISIBILITY.

* THESE STATIONS ARE NOT UNDER NWS QUALITY CONTROL. THEY ALSO MAY NOT
  REPORT WEATHER SUCH AS PRECIPITATION OR FOG.

INZ001>027-252100-
NORTHERN INDIANA

CITY           SKY/WX    TMP DP  RH WIND       PRES   REMARKS
GARY*          PTSUNNY   79  59  50 SW22G39   29.94R
SOUTH BEND     PTSUNNY   81  60  48 SW18G33   29.93S
ELKHART*       SUNNY     81  59  47 SW28G37   29.94F
GOSHEN         PTSUNNY   79  61  53 SW20G39   29.94S
ANGOLA*        PTSUNNY   81  75  83 SW25      29.95S
FORT WAYNE     PTSUNNY   78  62  57 SW23G37   30.00F

$$
INZ028>050-252100-
CENTRAL INDIANA

CITY           SKY/WX    TMP DP  RH WIND       PRES   REMARKS
LAFAYETTE      PTSUNNY   80  59  48 SW17G29   29.98S
KOKOMO*        CLOUDY    81  63  54 SW24G32   30.00F
MUNCIE*        MOSUNNY   78  63  59 SW16G29   30.04F
INDIANAPOLIS   PTSUNNY   77  64  64 SW17G28   30.04F

$$
MIZ043>046-050>051-056>058-064>065-071>073-077>080-252100-
SOUTHWEST LOWER MICHIGAN

CITY           SKY/WX    TMP DP  RH WIND       PRES   REMARKS
BATTLE CREEK   PTSUNNY   76  65  68 SW20G31   29.92R
BENTON HARBOR  PTSUNNY   74  64  71 SW18G26   29.91F
COLDWATER*     PTSUNNY   79  61  53 SW18G25   29.93S
HILLSDALE*     PTSUNNY   81  61  51 SW17G30   29.95F
HOLLAND        PTSUNNY   73  63  70 SW25G35   29.90S
GRAND RAPIDS   PTSUNNY   74  63  68 SW23G31   29.89S
KALAMAZOO      MOSUNNY   78  63  59 SW24G32   29.91F
STURGIS*       MOSUNNY   81  63  54 SW23G31   29.93F
THREE RIVERS*  FAIR      78  65  63 SW13G24   29.93S

$$
OHZ001>008-015>018-024>025-252100-
NORTHWEST OHIO

CITY           SKY/WX    TMP DP  RH WIND       PRES   REMARKS
DEFIANCE       MOSUNNY   81  63  54 SW25G33   29.99F
FINDLAY        PTSUNNY   79  63  57 SW25G37   30.04F
TOLEDO EXPRESS PTSUNNY   80  62  54 SW21G32   29.99F
TOLEDO METCALF PTSUNNY   81  62  52 SW29G36   30.00F
LIMA           PTSUNNY   75  63  66 SW20G31   30.06F

$$
AND FOR LAKE MICHIGAN COASTAL AND OPEN LAKE BUOY OBSERVATIONS

STATION/POSITION TEMP    WIND        PRES    VSBY  WAVE
                 AIR SEA DIR/SP/G                  HT/PER
                 (F)     (DEG/KT/KT) (MB)    (MI)  (FT/S)
CALUMET HARBOR    75     230/ 12/ 19   N/A
MICHIGAN CITY     63     250/ 18/ 20   N/A
BURNS HARBOR      73     250/ 19/ 24 1013.9R
SAINT JOSEPH      63     180/ 14/ 17 1014.2R
SOUTH LAKE BUOY   47 38  190/ 14/ 16 1011.9R         2/ 4
4 MI NW BRIDGMAN  58 54  230/  6/  8   N/A           2/ 4
MICHIGAN CITY     62 52  260/ 12/ 14   N/A           3/ 4

$$
&&


USA.gov is the U.S. government's official web portal to all federal, state and local government web resources and services.